Hourly Weather Ruszki

Today, 19 April, Monday

Time Temperature Precipitation Wind Pressure Humidity
00:00 +8°C° 0 mm 2 mps 757 mmHg 88%
01:00 +7°C° 0 mm 2 mps 756 mmHg 92%
02:00 +7°C° 0 mm 2 mps 756 mmHg 93%
03:00 +6°C° 0 mm 2 mps 756 mmHg 94%
04:00 +6°C° 0 mm 2 mps 755 mmHg 94%
05:00 +7°C° 0 mm 3 mps 755 mmHg 91%
06:00 +8°C° 0 mm 3 mps 755 mmHg 87%
07:00 +9°C° 0 mm 3 mps 755 mmHg 84%
08:00 +11°C° 0.1 mm 3 mps 755 mmHg 77%
09:00 +13°C° 0.1 mm 3 mps 755 mmHg 70%
10:00 +16°C° 0.1 mm 3 mps 755 mmHg 63%
11:00 +17°C° 0.4 mm 3 mps 755 mmHg 58%
12:00 +17°C° 0.4 mm 3 mps 755 mmHg 53%
13:00 +18°C° 0.4 mm 3 mps 754 mmHg 49%
14:00 +17°C° 0.1 mm 3 mps 754 mmHg 51%
15:00 +17°C° 0.1 mm 3 mps 754 mmHg 52%
16:00 +16°C° 0.1 mm 3 mps 754 mmHg 54%
17:00 +14°C° 0 mm 3 mps 754 mmHg 59%
18:00 +14°C° 0 mm 2 mps 754 mmHg 64%
19:00 +13°C° 0 mm 2 mps 754 mmHg 69%
20:00 +12°C° 0 mm 2 mps 754 mmHg 71%
21:00 +10°C° 0 mm 2 mps 754 mmHg 72%
22:00 +11°C° 0 mm 1 mps 754 mmHg 74%
23:00 +9°C° 0 mm 2 mps 754 mmHg 75%

Tomorrow, 20 April, Tuesday

Time Temperature Precipitation Wind Pressure Humidity
00:00 +9°C° 0 mm 2 mps 754 mmHg 77%
01:00 +8°C° 0 mm 2 mps 754 mmHg 78%
02:00 +8°C° 0 mm 2 mps 754 mmHg 79%
03:00 +9°C° 0 mm 1 mps 754 mmHg 79%
04:00 +8°C° 0 mm 1 mps 754 mmHg 79%
05:00 +9°C° 0 mm 1 mps 754 mmHg 77%
06:00 +10°C° 0 mm 1 mps 754 mmHg 75%
07:00 +9°C° 0 mm 2 mps 754 mmHg 73%
08:00 +12°C° 0 mm 2 mps 754 mmHg 67%
09:00 +13°C° 0 mm 2 mps 754 mmHg 61%
10:00 +14°C° 0 mm 2 mps 754 mmHg 56%
11:00 +15°C° 0.1 mm 2 mps 753 mmHg 52%
12:00 +15°C° 0.1 mm 1 mps 753 mmHg 49%
13:00 +16°C° 0.1 mm 1 mps 752 mmHg 46%
14:00 +16°C° 0 mm 1 mps 752 mmHg 47%
15:00 +15°C° 0 mm 1 mps 752 mmHg 48%
16:00 +15°C° 0 mm 1 mps 752 mmHg 49%
17:00 +14°C° 0 mm 1 mps 752 mmHg 55%
18:00 +13°C° 0 mm 1 mps 752 mmHg 60%
19:00 +11°C° 0 mm 1 mps 751 mmHg 66%
20:00 +11°C° 0 mm 1 mps 751 mmHg 69%
21:00 +10°C° 0 mm 1 mps 751 mmHg 72%
22:00 +9°C° 0 mm 1 mps 751 mmHg 75%
23:00 +9°C° 0 mm 1 mps 751 mmHg 76%

Day after tomorrow, 21 April, Wednesday

Time Temperature Precipitation Wind Pressure Humidity
00:00 +9°C° 0 mm 1 mps 751 mmHg 77%
01:00 +9°C° 0 mm 1 mps 751 mmHg 77%
02:00 +9°C° 0 mm 1 mps 751 mmHg 79%
03:00 +9°C° 0 mm 1 mps 750 mmHg 80%
04:00 +9°C° 0 mm 1 mps 750 mmHg 82%
05:00 +9°C° 0.1 mm 1 mps 750 mmHg 81%
06:00 +9°C° 0.1 mm 2 mps 750 mmHg 80%
07:00 +9°C° 0.1 mm 2 mps 750 mmHg 79%
08:00 +12°C° 0.3 mm 2 mps 750 mmHg 74%
09:00 +12°C° 0.3 mm 3 mps 749 mmHg 69%
10:00 +13°C° 0.3 mm 3 mps 749 mmHg 64%
11:00 +14°C° 0.2 mm 4 mps 749 mmHg 60%
12:00 +14°C° 0.2 mm 4 mps 749 mmHg 55%
13:00 +15°C° 0.2 mm 5 mps 748 mmHg 50%
14:00 +15°C° 0.2 mm 5 mps 748 mmHg 52%
15:00 +14°C° 0.2 mm 5 mps 748 mmHg 55%
16:00 +14°C° 0.2 mm 5 mps 748 mmHg 57%
17:00 +12°C° 0 mm 4 mps 748 mmHg 61%
18:00 +11°C° 0 mm 4 mps 748 mmHg 65%
19:00 +10°C° 0 mm 3 mps 748 mmHg 69%
20:00 +8°C° 0 mm 4 mps 749 mmHg 75%
21:00 +7°C° 0 mm 4 mps 749 mmHg 80%
22:00 +5°C° 0 mm 5 mps 749 mmHg 85%
23:00 +5°C° 0.1 mm 4 mps 750 mmHg 84%

22 April, Thursday

Time Temperature Precipitation Wind Pressure Humidity
00:00 +4°C° 0.1 mm 4 mps 750 mmHg 84%
01:00 +4°C° 0.1 mm 3 mps 750 mmHg 83%
02:00 +3°C° 0 mm 4 mps 750 mmHg 84%
03:00 +3°C° 0 mm 4 mps 750 mmHg 86%
04:00 +1°C° 0 mm 4 mps 750 mmHg 87%
05:00 +1°C° 0 mm 5 mps 750 mmHg 81%
06:00 +1°C° 0 mm 6 mps 750 mmHg 75%
07:00 +2°C° 0 mm 6 mps 750 mmHg 69%
08:00 +3°C° 0 mm 7 mps 750 mmHg 63%
09:00 +4°C° 0 mm 7 mps 750 mmHg 57%
10:00 +5°C° 0 mm 7 mps 750 mmHg 51%
11:00 +5°C° 0 mm 7 mps 750 mmHg 49%
12:00 +6°C° 0 mm 8 mps 750 mmHg 48%
13:00 +6°C° 0 mm 8 mps 750 mmHg 46%
14:00 +6°C° 0 mm 8 mps 750 mmHg 48%
15:00 +8°C° 0 mm 7 mps 750 mmHg 50%
16:00 +8°C° 0 mm 7 mps 750 mmHg 51%
17:00 +7°C° 0 mm 6 mps 750 mmHg 58%
18:00 +4°C° 0 mm 6 mps 750 mmHg 65%
19:00 +3°C° 0 mm 5 mps 750 mmHg 72%
20:00 +3°C° 0.2 mm 5 mps 750 mmHg 79%
21:00 +2°C° 0.2 mm 5 mps 750 mmHg 86%
22:00 +2°C° 0.2 mm 5 mps 749 mmHg 93%
23:00 +2°C° 0.1 mm 5 mps 750 mmHg 92%

23 April, Friday

Time Temperature Precipitation Wind Pressure Humidity
00:00 +1°C° 0.1 mm 5 mps 750 mmHg 91%
01:00 +1°C° 0.1 mm 6 mps 750 mmHg 90%
02:00 +1°C° 0.1 mm 6 mps 750 mmHg 89%
03:00 +1°C° 0.1 mm 6 mps 750 mmHg 88%
04:00 +2°C° 0.1 mm 7 mps 751 mmHg 87%
05:00 +2°C° 0 mm 7 mps 751 mmHg 86%
06:00 +2°C° 0 mm 7 mps 752 mmHg 85%
07:00 +3°C° 0 mm 7 mps 752 mmHg 84%
08:00 +3°C° 0.1 mm 7 mps 753 mmHg 83%
09:00 +3°C° 0.1 mm 6 mps 753 mmHg 81%
10:00 +3°C° 0.1 mm 6 mps 753 mmHg 80%
11:00 +4°C° 0.2 mm 6 mps 754 mmHg 74%
12:00 +5°C° 0.2 mm 6 mps 754 mmHg 68%
13:00 +7°C° 0.2 mm 6 mps 754 mmHg 61%
14:00 +7°C° 0.2 mm 6 mps 754 mmHg 57%
15:00 +8°C° 0.2 mm 6 mps 754 mmHg 52%
16:00 +8°C° 0.2 mm 6 mps 754 mmHg 47%
17:00 +6°C° 0 mm 5 mps 755 mmHg 50%
18:00 +5°C° 0 mm 3 mps 755 mmHg 52%
19:00 +4°C° 0 mm 2 mps 755 mmHg 55%
20:00 +4°C° 0.1 mm 2 mps 755 mmHg 59%
21:00 +4°C° 0.1 mm 2 mps 755 mmHg 62%
22:00 +4°C° 0.1 mm 2 mps 755 mmHg 66%
23:00 +3°C° 0.5 mm 2 mps 754 mmHg 75%

24 April, Saturday

Time Temperature Precipitation Wind Pressure Humidity
00:00 +3°C° 0.5 mm 1 mps 754 mmHg 85%
01:00 +2°C° 0.5 mm 1 mps 754 mmHg 94%
02:00 +2°C° 1 mm 1 mps 753 mmHg 95%
03:00 +1°C° 1 mm 2 mps 753 mmHg 97%
04:00 +1°C° 1 mm 2 mps 753 mmHg 99%
05:00 +1°C° 0.2 mm 2 mps 754 mmHg 97%
06:00 +2°C° 0.2 mm 2 mps 754 mmHg 95%
07:00 +1°C° 0.2 mm 3 mps 754 mmHg 93%
08:00 +1°C° 0.2 mm 4 mps 754 mmHg 84%
09:00 +4°C° 0.2 mm 4 mps 755 mmHg 74%
10:00 +5°C° 0.2 mm 5 mps 755 mmHg 64%
11:00 +4°C° 0.2 mm 6 mps 755 mmHg 60%
12:00 +5°C° 0.2 mm 6 mps 755 mmHg 55%
13:00 +6°C° 0.2 mm 7 mps 755 mmHg 51%
14:00 +5°C° 0.2 mm 7 mps 755 mmHg 53%
15:00 +5°C° 0.2 mm 7 mps 755 mmHg 55%
16:00 +5°C° 0.2 mm 7 mps 755 mmHg 57%
17:00 +4°C° 0 mm 7 mps 755 mmHg 59%
18:00 +2°C° 0 mm 6 mps 756 mmHg 62%
19:00 +1°C° 0 mm 6 mps 756 mmHg 65%
20:00 +1°C° 0 mm 5 mps 756 mmHg 69%
21:00 0°C° 0 mm 5 mps 757 mmHg 73%
22:00 0°C° 0 mm 4 mps 757 mmHg 77%
23:00 0°C° 0 mm 5 mps 757 mmHg 77%
Show more